Location: Leipzig
(51.3392°N, 12.3528°E)
Time: 04:40:16
(UTC+01:00)

ISS - Pass Details

Date: 12 February 2018
Orbit: 402 x 407 km, 51.6° (Epoch: 25 February)

Event Time Altitude Azimuth Distance (km) Brightness Sun altitude
Rises 18:32:16 0° 280° (W) 2,321 1.6 -11.7°
Reaches altitude 10° 18:34:57 10° 257° (WSW) 1,458 0.5 -12.1°
Maximum altitude 18:36:56 15° 219° (SW) 1,184 -0.8 -12.4°
Drops below altitude 10° 18:38:54 10° 182° (S) 1,453 -0.9 -12.7°
Sets 18:41:35 0° 158° (SSE) 2,308 -0.2 -13.1°
